Weather History for Mobridge, SD

Change the Weather History Date:

Tuesday, March 11, 2014

  Actual Average Record
Temperature  
Mean Temperature 36 °F 30 °F  
Max Temperature 44 °F 40 °F 75 °F (1911)
Min Temperature 28 °F 19 °F -21 °F (1998)
Degree Days  
Heating Degree Days 29 35  
Month to date heating degree days 483 413  
Since 1 July heating degree days 7023 6388  
Cooling Degree Days 0 0  
Month to date cooling degree days 0 0  
Year to date cooling degree days 0 0  
Moisture  
Dew Point 31 °F    
Average Humidity 79    
Maximum Humidity 96    
Minimum Humidity 62    
Precipitation  
Precipitation 0.06 in 0.03 in 1.29 in (1977)
Month to date precipitation 0.27 0.26  
Year to date precipitation 0.88 0.99  
Snow  
Snow 0.00 in - - ()
Month to date snowfall 2.8  
Since 1 July snowfall 34.2  
Snow Depth 0.00 in    
Sea Level Pressure  
Sea Level Pressure 30.00 in    
Wind  
Wind Speed 9 mph (North)    
Max Wind Speed 23 mph    
Max Gust Speed 27 mph    
Visibility 10 miles    
Events Rain    
T = Trace of Precipitation, MM = Missing Value Source: NWS Daily Summary

Daily Weather History Graph

Daily Weather History Graph

Search for Another Location

Airport:

Trip Planner

Search our weather history database for the weather conditions in past years. The results will help you decide how hot, cold, wet, or windy it might be!

Date:

Astronomy

Mar. 11, 2014 Rise Set
Actual Time 8:01 AM CDT 7:42 PM CDT
Civil Twilight 7:32 AM CDT 8:11 PM CDT
Nautical Twilight 6:57 AM CDT 8:46 PM CDT
Astronomical Twilight 6:22 AM CDT 9:21 PM CDT
Moon 3:10 PM CDT (3/11) 5:07 AM CDT (3/11)
Length of Visible Light 12h 39m
Length of Day
11h 40m
Waxing Gibbous, 78% of the Moon is Illuminated
Mar 11
Waxing Gibbous
Mar 16
Full
Mar 23
Last Quarter
Mar 30
New
Apr 7
First Quarter

Hourly Weather History & Observations

Time (CDT) Temp. Windchill Dew Point Humidity Pressure Visibility Wind Dir Wind Speed Gust Speed Precip Events Conditions
12:28 AM 37.0 °F 28.1 °F 34.0 °F 89% 29.75 in 9.0 mi NE 15.0 mph - 0.03 in Rain Light Rain
12:52 AM 37.0 °F 28.1 °F 34.0 °F 89% 29.77 in 10.0 mi NE 15.0 mph - 0.03 in Rain Light Rain
1:52 AM 37.0 °F 31.0 °F 34.0 °F 89% 29.78 in 10.0 mi NNE 8.1 mph - 0.01 in Rain Light Rain
2:03 AM 37.0 °F 30.4 °F 34.0 °F 89% 29.75 in 9.0 mi NE 9.2 mph - 0.01 in Rain Light Rain
2:52 AM 37.0 °F 32.4 °F 33.1 °F 86% 29.81 in 10.0 mi North 5.8 mph - 0.03 in Rain Light Rain
2:59 AM 37.0 °F 34.5 °F 34.0 °F 89% 29.79 in 10.0 mi NNW 3.5 mph - 0.00 in Rain Light Rain
3:52 AM 37.0 °F 29.8 °F 33.1 °F 86% 29.84 in 10.0 mi North 10.4 mph - 0.02 in Rain Light Rain
4:33 AM 36.0 °F 31.1 °F 33.1 °F 89% 29.81 in 10.0 mi NNW 5.8 mph - 0.01 in   Overcast
4:52 AM 35.1 °F 31.0 °F 33.1 °F 92% 29.84 in 10.0 mi North 4.6 mph - 0.01 in   Overcast
5:52 AM 34.0 °F 26.6 °F 32.0 °F 92% 29.82 in 10.0 mi NNW 9.2 mph - N/A   Overcast
6:52 AM 34.0 °F 26.0 °F 30.9 °F 89% 29.89 in 10.0 mi NNW 10.4 mph - N/A   Overcast
7:52 AM 33.1 °F 25.5 °F 30.0 °F 89% 29.92 in 10.0 mi North 9.2 mph - N/A   Mostly Cloudy
8:52 AM 33.1 °F 25.5 °F 30.0 °F 89% 29.97 in 10.0 mi NNW 9.2 mph - N/A   Clear
9:52 AM 34.0 °F 25.5 °F 30.0 °F 85% 30.00 in 10.0 mi North 11.5 mph - N/A   Partly Cloudy
10:52 AM 35.1 °F 26.4 °F 30.9 °F 85% 30.03 in 10.0 mi NNW 12.7 mph - N/A   Clear
11:52 AM 39.0 °F 31.4 °F 32.0 °F 76% 30.06 in 10.0 mi North 12.7 mph - N/A   Partly Cloudy
12:52 PM 39.9 °F 31.8 °F 30.9 °F 70% 30.09 in 10.0 mi North 15.0 mph - N/A   Clear
1:52 PM 42.1 °F 33.3 °F 32.0 °F 67% 30.11 in 10.0 mi North 19.6 mph - N/A   Clear
2:22 PM 39.0 °F 29.3 °F 30.0 °F 70% 30.07 in 10.0 mi North 19.6 mph - N/A   Mostly Cloudy
2:52 PM 42.1 °F 33.6 °F 30.9 °F 65% 30.12 in 10.0 mi North 18.4 mph 24.2 mph N/A   Overcast
3:15 PM 41.0 °F 32.8 °F 30.9 °F 67% 30.08 in 10.0 mi North 16.1 mph - N/A   Mostly Cloudy
3:24 PM 41.0 °F 33.1 °F 30.9 °F 67% 30.08 in 10.0 mi North 15.0 mph - N/A   Mostly Cloudy
3:40 PM 42.1 °F 34.9 °F 30.9 °F 65% 30.08 in 10.0 mi North 13.8 mph - N/A   Mostly Cloudy
3:52 PM 42.1 °F 34.5 °F 30.9 °F 65% 30.13 in 10.0 mi North 15.0 mph 23.0 mph N/A   Partly Cloudy
4:52 PM 43.0 °F 35.4 °F 30.9 °F 62% 30.13 in 10.0 mi North 16.1 mph - N/A   Clear
5:52 PM 42.1 °F 35.2 °F 30.9 °F 65% 30.14 in 10.0 mi North 12.7 mph - N/A   Mostly Cloudy
6:52 PM 41.0 °F 35.2 °F 30.0 °F 65% 30.16 in 10.0 mi North 9.2 mph - N/A   Clear
7:52 PM 34.0 °F 27.2 °F 28.9 °F 82% 30.19 in 10.0 mi NE 8.1 mph - N/A   Mostly Cloudy
8:52 PM 34.0 °F 29.8 °F 28.9 °F 82% 30.20 in 10.0 mi NE 4.6 mph - N/A   Overcast
9:52 PM 33.1 °F - 30.0 °F 89% 30.20 in 10.0 mi Calm Calm - N/A   Overcast
10:52 PM 34.0 °F 31.0 °F 28.0 °F 79% 30.19 in 10.0 mi NNW 3.5 mph - N/A   Mostly Cloudy
11:52 PM 30.9 °F - 28.0 °F 89% 30.17 in 10.0 mi Calm Calm - N/A   Mostly Cloudy